When you browse on this site, cookies collect data to enhance your experience and personalize the content and advertising you see.
Visit our Privacy Policy to learn more. By continuing to use the site, you agree to this use of cookies and data.
  • In Schweiz
  • Länderverzeichnis
  • Für 7 Tage
  • Wassertemperatur
  • Wetterkarte
  • Widgets
  • user-avatar
    Anmelden

    Stündliche Wetter Goslar

    Heute, 3 Juni, Mittwoch

    Zeit Temperatur Niederschläge Wind Luftdruck Luftfeuchtigkeit
    00:00 +14°C° 0 mm 1 m/S 731 mmHg 82%
    01:00 +14°C° 0 mm 1 m/S 730 mmHg 83%
    02:00 +13°C° 0.1 mm 1 m/S 730 mmHg 84%
    03:00 +13°C° 0.1 mm 1 m/S 729 mmHg 85%
    04:00 +13°C° 0.1 mm 1 m/S 728 mmHg 86%
    05:00 +14°C° 0.1 mm 1 m/S 728 mmHg 84%
    06:00 +15°C° 0.1 mm 1 m/S 728 mmHg 82%
    07:00 +16°C° 0.1 mm 1 m/S 728 mmHg 80%
    08:00 +19°C° 0.3 mm 1 m/S 728 mmHg 77%
    09:00 +20°C° 0.3 mm 1 m/S 728 mmHg 74%
    10:00 +21°C° 0.3 mm 1 m/S 728 mmHg 70%
    11:00 +22°C° 0.6 mm 1 m/S 727 mmHg 66%
    12:00 +23°C° 0.6 mm 1 m/S 727 mmHg 62%
    13:00 +23°C° 0.6 mm 1 m/S 726 mmHg 58%
    14:00 +23°C° 0.7 mm 1 m/S 726 mmHg 62%
    15:00 +22°C° 0.7 mm 1 m/S 725 mmHg 67%
    16:00 +21°C° 0.7 mm 2 m/S 725 mmHg 72%
    17:00 +21°C° 0.4 mm 1 m/S 724 mmHg 75%
    18:00 +20°C° 0.4 mm 1 m/S 724 mmHg 78%
    19:00 +18°C° 0.4 mm 0 m/S 724 mmHg 81%
    20:00 +18°C° 0.1 mm 1 m/S 724 mmHg 83%
    21:00 +16°C° 0.1 mm 1 m/S 723 mmHg 85%
    22:00 +14°C° 0.1 mm 1 m/S 723 mmHg 87%
    23:00 +14°C° 0 mm 1 m/S 723 mmHg 87%

    Morgen, 4 Juni, Donnerstag

    Zeit Temperatur Niederschläge Wind Luftdruck Luftfeuchtigkeit
    00:00 +14°C° 0 mm 1 m/S 722 mmHg 86%
    01:00 +13°C° 0 mm 1 m/S 722 mmHg 86%
    02:00 +13°C° 0.1 mm 1 m/S 721 mmHg 87%
    03:00 +13°C° 0.1 mm 1 m/S 721 mmHg 87%
    04:00 +13°C° 0.1 mm 1 m/S 720 mmHg 87%
    05:00 +13°C° 0.1 mm 1 m/S 720 mmHg 88%
    06:00 +14°C° 0.1 mm 1 m/S 720 mmHg 89%
    07:00 +14°C° 0.1 mm 1 m/S 719 mmHg 90%
    08:00 +14°C° 1.9 mm 1 m/S 719 mmHg 92%
    09:00 +14°C° 1.9 mm 1 m/S 719 mmHg 95%
    10:00 +14°C° 1.9 mm 1 m/S 719 mmHg 97%
    11:00 +14°C° 1.1 mm 1 m/S 718 mmHg 96%
    12:00 +14°C° 1.1 mm 2 m/S 718 mmHg 95%
    13:00 +14°C° 1.1 mm 2 m/S 718 mmHg 94%
    14:00 +15°C° 0.3 mm 2 m/S 718 mmHg 90%
    15:00 +16°C° 0.3 mm 3 m/S 718 mmHg 86%
    16:00 +17°C° 0.3 mm 3 m/S 718 mmHg 81%
    17:00 +15°C° 0.3 mm 4 m/S 718 mmHg 85%
    18:00 +13°C° 0.3 mm 4 m/S 718 mmHg 88%
    19:00 +12°C° 0.3 mm 5 m/S 718 mmHg 91%
    20:00 +11°C° 0 mm 4 m/S 718 mmHg 92%
    21:00 +9°C° 0 mm 3 m/S 719 mmHg 93%
    22:00 +8°C° 0 mm 3 m/S 719 mmHg 94%
    23:00 +8°C° 0 mm 3 m/S 719 mmHg 94%

    übermorgen, 5 Juni, Freitag

    Zeit Temperatur Niederschläge Wind Luftdruck Luftfeuchtigkeit
    00:00 +7°C° 0 mm 3 m/S 719 mmHg 95%
    01:00 +7°C° 0 mm 3 m/S 720 mmHg 96%
    02:00 +7°C° 0 mm 3 m/S 720 mmHg 95%
    03:00 +5°C° 0 mm 3 m/S 720 mmHg 95%
    04:00 +5°C° 0 mm 3 m/S 720 mmHg 94%
    05:00 +7°C° 0 mm 3 m/S 720 mmHg 91%
    06:00 +6°C° 0 mm 4 m/S 720 mmHg 87%
    07:00 +7°C° 0 mm 4 m/S 721 mmHg 84%
    08:00 +8°C° 0 mm 4 m/S 721 mmHg 76%
    09:00 +11°C° 0 mm 4 m/S 721 mmHg 68%
    10:00 +12°C° 0 mm 4 m/S 720 mmHg 60%
    11:00 +12°C° 0.1 mm 5 m/S 720 mmHg 63%
    12:00 +12°C° 0.1 mm 5 m/S 720 mmHg 66%
    13:00 +10°C° 0.1 mm 6 m/S 720 mmHg 69%
    14:00 +11°C° 0.2 mm 6 m/S 719 mmHg 71%
    15:00 +11°C° 0.2 mm 7 m/S 719 mmHg 72%
    16:00 +12°C° 0.2 mm 7 m/S 719 mmHg 73%
    17:00 +11°C° 1 mm 6 m/S 719 mmHg 79%
    18:00 +9°C° 1 mm 5 m/S 719 mmHg 86%
    19:00 +8°C° 1 mm 4 m/S 719 mmHg 92%
    20:00 +7°C° 0.1 mm 4 m/S 719 mmHg 93%
    21:00 +7°C° 0.1 mm 3 m/S 720 mmHg 93%
    22:00 +5°C° 0.1 mm 3 m/S 721 mmHg 94%
    23:00 +5°C° 0 mm 3 m/S 721 mmHg 94%

    6 Juni, Samstag

    Zeit Temperatur Niederschläge Wind Luftdruck Luftfeuchtigkeit
    00:00 +5°C° 0 mm 3 m/S 721 mmHg 94%
    01:00 +5°C° 0 mm 3 m/S 721 mmHg 94%
    02:00 +5°C° 0 mm 3 m/S 722 mmHg 94%
    03:00 +4°C° 0 mm 3 m/S 722 mmHg 94%
    04:00 +4°C° 0 mm 4 m/S 722 mmHg 95%
    05:00 +5°C° 0 mm 4 m/S 722 mmHg 92%
    06:00 +6°C° 0 mm 4 m/S 722 mmHg 89%
    07:00 +8°C° 0 mm 5 m/S 723 mmHg 86%
    08:00 +9°C° 0.2 mm 5 m/S 723 mmHg 81%
    09:00 +10°C° 0.2 mm 6 m/S 723 mmHg 75%
    10:00 +11°C° 0.2 mm 6 m/S 723 mmHg 70%
    11:00 +13°C° 0.3 mm 6 m/S 723 mmHg 68%
    12:00 +14°C° 0.3 mm 6 m/S 724 mmHg 67%
    13:00 +14°C° 0.3 mm 7 m/S 724 mmHg 66%
    14:00 +14°C° 0.4 mm 6 m/S 724 mmHg 67%
    15:00 +14°C° 0.4 mm 5 m/S 724 mmHg 69%
    16:00 +14°C° 0.4 mm 5 m/S 724 mmHg 70%
    17:00 +13°C° 0.2 mm 4 m/S 724 mmHg 73%
    18:00 +13°C° 0.2 mm 3 m/S 724 mmHg 76%
    19:00 +12°C° 0.2 mm 3 m/S 724 mmHg 80%
    20:00 +11°C° 0 mm 3 m/S 724 mmHg 83%
    21:00 +9°C° 0 mm 2 m/S 725 mmHg 87%
    22:00 +8°C° 0 mm 2 m/S 725 mmHg 90%
    23:00 +8°C° 0 mm 2 m/S 725 mmHg 90%

    7 Juni, Sonntag

    Zeit Temperatur Niederschläge Wind Luftdruck Luftfeuchtigkeit
    00:00 +7°C° 0 mm 2 m/S 726 mmHg 91%
    01:00 +7°C° 0 mm 2 m/S 726 mmHg 91%
    02:00 +6°C° 0 mm 2 m/S 726 mmHg 91%
    03:00 +6°C° 0 mm 2 m/S 726 mmHg 91%
    04:00 +6°C° 0 mm 2 m/S 726 mmHg 92%
    05:00 +8°C° 0 mm 2 m/S 726 mmHg 89%
    06:00 +10°C° 0 mm 1 m/S 727 mmHg 87%
    07:00 +11°C° 0 mm 1 m/S 727 mmHg 85%
    08:00 +13°C° 0 mm 1 m/S 727 mmHg 78%
    09:00 +14°C° 0 mm 1 m/S 727 mmHg 72%
    10:00 +15°C° 0 mm 1 m/S 727 mmHg 66%
    11:00 +15°C° 0.2 mm 2 m/S 727 mmHg 71%
    12:00 +14°C° 0.2 mm 2 m/S 727 mmHg 76%
    13:00 +13°C° 0.2 mm 2 m/S 727 mmHg 81%
    14:00 +12°C° 1.5 mm 2 m/S 727 mmHg 85%
    15:00 +9°C° 1.5 mm 2 m/S 727 mmHg 90%
    16:00 +7°C° 1.5 mm 2 m/S 728 mmHg 95%
    17:00 +7°C° 0.1 mm 2 m/S 728 mmHg 94%
    18:00 +8°C° 0.1 mm 2 m/S 728 mmHg 92%
    19:00 +8°C° 0.1 mm 2 m/S 728 mmHg 91%
    20:00 +8°C° 0 mm 2 m/S 729 mmHg 91%
    21:00 +7°C° 0 mm 2 m/S 729 mmHg 92%
    22:00 +7°C° 0 mm 2 m/S 730 mmHg 92%
    23:00 +6°C° 0 mm 2 m/S 730 mmHg 92%

    8 Juni, Montag

    Zeit Temperatur Niederschläge Wind Luftdruck Luftfeuchtigkeit
    00:00 +6°C° 0 mm 2 m/S 730 mmHg 91%
    01:00 +6°C° 0 mm 2 m/S 730 mmHg 90%
    02:00 +6°C° 0 mm 2 m/S 730 mmHg 90%
    03:00 +6°C° 0 mm 2 m/S 730 mmHg 91%
    04:00 +5°C° 0 mm 2 m/S 730 mmHg 91%
    05:00 +7°C° 0 mm 2 m/S 730 mmHg 88%
    06:00 +9°C° 0 mm 2 m/S 730 mmHg 85%
    07:00 +10°C° 0 mm 3 m/S 730 mmHg 82%
    08:00 +12°C° 0 mm 3 m/S 730 mmHg 75%
    09:00 +14°C° 0 mm 3 m/S 730 mmHg 67%
    10:00 +16°C° 0 mm 3 m/S 731 mmHg 60%
    11:00 +17°C° 0.1 mm 3 m/S 731 mmHg 60%
    12:00 +17°C° 0.1 mm 4 m/S 730 mmHg 60%
    13:00 +18°C° 0.1 mm 4 m/S 730 mmHg 61%
    14:00 +18°C° 0.5 mm 4 m/S 730 mmHg 64%
    15:00 +18°C° 0.5 mm 4 m/S 730 mmHg 66%
    16:00 +17°C° 0.5 mm 4 m/S 730 mmHg 69%
    17:00 +17°C° 0.3 mm 3 m/S 730 mmHg 73%
    18:00 +16°C° 0.3 mm 3 m/S 730 mmHg 77%
    19:00 +15°C° 0.3 mm 2 m/S 730 mmHg 80%
    20:00 +14°C° 0 mm 2 m/S 730 mmHg 82%
    21:00 +12°C° 0 mm 2 m/S 731 mmHg 85%
    22:00 +9°C° 0 mm 2 m/S 731 mmHg 87%
    23:00 +9°C° 0 mm 2 m/S 731 mmHg 88%
    Mehr zeigen